Fernwood, MS

2:56 AM CST on December 04, 2016 (GMT -0600)
McComb-Pike County-Lewis

Weather History for KMCB - July, 2014

Change the Weather History Date:

Saturday, July 26, 2014

  Actual Average Record
Temperature  
Mean Temperature 82 °F -  
Max Temperature 91 °F 91 °F 98 °F (1983)
Min Temperature 73 °F 70 °F 33 °F (1996)
Cooling Degree Days 17    
Growing Degree Days 32 (Base 50)    
Moisture  
Dew Point 74 °F    
Average Humidity 79    
Maximum Humidity 94    
Minimum Humidity 53    
Precipitation  
Precipitation 0.00 in - - ()
Sea Level Pressure  
Sea Level Pressure 30.02 in    
Wind  
Wind Speed 2 mph (WSW)    
Max Wind Speed 7 mph    
Max Gust Speed -    
Visibility 8 miles    
Events      
Averages and records for this station are not official NWS values.
T = Trace of Precipitation, MM = Missing Value Source: NWS Daily Summary

Daily Weather History Graph

Daily Weather History Graph

Search for Another Location

Airport or City:

Trip Planner

Search our weather history database for the weather conditions in past years. The results will help you decide how hot, cold, wet, or windy it might be!

Date:

Astronomy

Jul. 26, 2014 Rise Set
Actual Time 6:14 AM CDT 8:01 PM CDT
Civil Twilight 5:48 AM CDT 8:28 PM CDT
Nautical Twilight 5:16 AM CDT 9:00 PM CDT
Astronomical Twilight 4:42 AM CDT 9:34 PM CDT
Moon 6:03 AM CDT (7/26) 7:42 PM CDT (7/26)
Length of Visible Light 14h 39m
Length of Day
13h 46m
Waning Crescent, 0% of the Moon is Illuminated
Jul 26
Waning Crescent
Jul 26
New
Aug 3
First Quarter
Aug 10
Full
Aug 17
Last Quarter

Hourly Weather History & Observations

Time (CDT) Temp. Heat Index Dew Point Humidity Pressure Visibility Wind Dir Wind Speed Gust Speed Precip Events Conditions
12:53 AM 77.0 °F - 73.9 °F 90% 30.01 in 6.0 mi South 3.5 mph - N/A   Clear
1:53 AM 77.0 °F - 73.9 °F 90% 30.00 in 6.0 mi Calm Calm - N/A   Clear
2:53 AM 75.0 °F - 73.0 °F 94% 29.99 in 5.0 mi Calm Calm - N/A   Clear
3:53 AM 75.0 °F - 73.0 °F 94% 30.00 in 5.0 mi Calm Calm - N/A   Clear
4:53 AM 75.0 °F - 73.0 °F 94% 30.00 in 5.0 mi Calm Calm - N/A   Clear
5:53 AM 73.0 °F - 71.1 °F 93% 30.03 in 4.0 mi Calm Calm - N/A   Clear
6:53 AM 73.9 °F - 72.0 °F 93% 30.04 in 3.0 mi Calm Calm - N/A   Clear
7:53 AM 77.0 °F - 73.9 °F 90% 30.06 in 5.0 mi Calm Calm - N/A   Clear
8:53 AM 81.0 °F 86.7 °F 75.0 °F 82% 30.08 in 9.0 mi WNW 6.9 mph - N/A   Clear
10:53 AM 86.0 °F 93.8 °F 73.9 °F 67% 30.08 in 10.0 mi WNW 6.9 mph - N/A   Mostly Cloudy
1:53 PM 91.0 °F 99.3 °F 73.0 °F 55% 30.04 in 10.0 mi Variable 4.6 mph - N/A   Partly Cloudy
2:53 PM 90.0 °F 96.9 °F 72.0 °F 55% 30.02 in 10.0 mi Calm Calm - N/A   Clear
3:53 PM 91.0 °F 98.2 °F 72.0 °F 53% 30.00 in 10.0 mi SW 6.9 mph - N/A   Clear
5:53 PM 90.0 °F 97.9 °F 73.0 °F 57% 29.99 in 10.0 mi SSW 6.9 mph - N/A   Partly Cloudy
6:53 PM 89.1 °F 98.0 °F 73.9 °F 61% 29.99 in 10.0 mi SW 5.8 mph - N/A   Clear
7:53 PM 86.0 °F 96.0 °F 75.9 °F 72% 30.00 in 10.0 mi Calm Calm - N/A   Clear
8:53 PM 82.0 °F 89.4 °F 75.9 °F 82% 30.02 in 10.0 mi Calm Calm - N/A   Clear
9:53 PM 81.0 °F 87.3 °F 75.9 °F 85% 30.03 in 8.0 mi Calm Calm - N/A   Clear
10:53 PM 80.1 °F 85.4 °F 75.9 °F 87% 30.04 in 7.0 mi WSW 3.5 mph - N/A   Clear
11:53 PM 79.0 °F - 75.9 °F 90% 30.04 in 6.0 mi WSW 3.5 mph - N/A   Clear